EIN225H EGPF-EIDW

Flight info

Callsign EIN225H
Flight time 0h 53m
Altitude 22000
Route NORBO L186 TRN DCT BLACA DCT NELBO P620 NIMAT NIMAT3R
Aircraft A320/M-SDE3FGHIRWY/LB1

Departure

Time 2026-04-30 09:08
Airport Glasgow Airport (EGPF)

Arrival

Time 2026-04-30 10:01
Airport Dublin Airport (EIDW)
Time Latitude Longitude Altitude Speed Heading
2026-04-30 08:50 55.86670 -4.43322 35 ft 0 kts 254°
2026-04-30 09:00 55.86674 -4.43293 34 ft 4 kts 257°
2026-04-30 09:00 55.86675 -4.43250 32 ft 4 kts 298°
2026-04-30 09:00 55.86657 -4.43221 33 ft 3 kts 343°
2026-04-30 09:00 55.86650 -4.43217 34 ft 0 kts 344°
2026-04-30 09:03 55.86653 -4.43219 34 ft 3 kts 344°
2026-04-30 09:03 55.86689 -4.43239 34 ft 6 kts 343°
2026-04-30 09:03 55.86725 -4.43258 35 ft 6 kts 343°
2026-04-30 09:03 55.86781 -4.43297 35 ft 11 kts 314°
2026-04-30 09:04 55.86775 -4.43445 35 ft 14 kts 254°
2026-04-30 09:04 55.86746 -4.43626 35 ft 16 kts 253°
2026-04-30 09:04 55.86703 -4.43802 35 ft 15 kts 229°
2026-04-30 09:04 55.86632 -4.43933 35 ft 14 kts 227°
2026-04-30 09:05 55.86589 -4.44017 35 ft 14 kts 227°
2026-04-30 09:05 55.86506 -4.44172 35 ft 12 kts 226°
2026-04-30 09:05 55.86467 -4.44245 35 ft 12 kts 226°
2026-04-30 09:05 55.86388 -4.44390 34 ft 12 kts 226°
2026-04-30 09:06 55.86350 -4.44462 34 ft 12 kts 226°
2026-04-30 09:06 55.86295 -4.44564 33 ft 11 kts 226°
2026-04-30 09:06 55.86245 -4.44668 32 ft 10 kts 252°
2026-04-30 09:06 55.86279 -4.44766 32 ft 9 kts 319°
2026-04-30 09:07 55.86320 -4.44831 34 ft 6 kts 316°
2026-04-30 09:07 55.86349 -4.44869 34 ft 4 kts 344°
2026-04-30 09:07 55.86381 -4.44840 34 ft 8 kts 45°
2026-04-30 09:07 55.86490 -4.44622 38 ft 55 kts 46°
2026-04-30 09:08 55.86922 -4.43826 35 ft 121 kts 46°
2026-04-30 09:08 55.87606 -4.42549 313 ft 147 kts 48°
2026-04-30 09:08 55.88292 -4.41236 1099 ft 143 kts 49°
2026-04-30 09:08 55.89022 -4.39886 1530 ft 164 kts 50°
2026-04-30 09:09 55.89861 -4.38348 2009 ft 181 kts 51°
2026-04-30 09:09 55.90776 -4.36641 2448 ft 205 kts 52°
2026-04-30 09:09 55.91811 -4.34687 2922 ft 229 kts 53°
2026-04-30 09:09 55.93036 -4.32610 3463 ft 260 kts 38°
2026-04-30 09:10 55.94840 -4.31632 4168 ft 285 kts
2026-04-30 09:10 55.96757 -4.32597 5122 ft 292 kts 326°
2026-04-30 09:10 55.98159 -4.35193 5743 ft 292 kts 295°
2026-04-30 09:10 55.98624 -4.38602 5941 ft 279 kts 261°
2026-04-30 09:11 55.98085 -4.41827 5991 ft 269 kts 239°
2026-04-30 09:11 55.97250 -4.44817 5989 ft 268 kts 237°
2026-04-30 09:11 55.96376 -4.47763 5990 ft 269 kts 237°
2026-04-30 09:11 55.95414 -4.50599 5981 ft 264 kts 226°
2026-04-30 09:12 55.94139 -4.52905 5997 ft 261 kts 218°
2026-04-30 09:12 55.92852 -4.55143 5983 ft 262 kts 220°
2026-04-30 09:12 55.91567 -4.57447 5985 ft 263 kts 220°
2026-04-30 09:12 55.90281 -4.59772 5983 ft 262 kts 220°
2026-04-30 09:13 55.88999 -4.62097 5982 ft 262 kts 220°
2026-04-30 09:13 55.87717 -4.64417 5983 ft 262 kts 220°
2026-04-30 09:13 55.86441 -4.66684 5982 ft 261 kts 216°
2026-04-30 09:13 55.84958 -4.68491 5983 ft 257 kts 208°
2026-04-30 09:14 55.83440 -4.70188 5973 ft 257 kts 208°
2026-04-30 09:14 55.81918 -4.71889 5978 ft 258 kts 208°
2026-04-30 09:14 55.80391 -4.73576 5965 ft 257 kts 205°
2026-04-30 09:14 55.78748 -4.74725 5970 ft 253 kts 189°
2026-04-30 09:15 55.77038 -4.75057 5969 ft 249 kts 179°
2026-04-30 09:15 55.75296 -4.75162 5969 ft 250 kts 180°
2026-04-30 09:15 55.73559 -4.75278 5967 ft 249 kts 180°
2026-04-30 09:15 55.71823 -4.75394 5970 ft 250 kts 180°
2026-04-30 09:16 55.70090 -4.75507 5965 ft 250 kts 180°
2026-04-30 09:16 55.68354 -4.75618 5965 ft 249 kts 179°
2026-04-30 09:16 55.66620 -4.75731 5962 ft 249 kts 180°
2026-04-30 09:16 55.64892 -4.75847 5959 ft 248 kts 180°
2026-04-30 09:17 55.63191 -4.75961 5960 ft 248 kts 180°
2026-04-30 09:17 55.61466 -4.76075 5959 ft 248 kts 180°
2026-04-30 09:17 55.59738 -4.76191 5960 ft 248 kts 180°
2026-04-30 09:17 55.57988 -4.76314 6257 ft 257 kts 180°
2026-04-30 09:18 55.56209 -4.76448 7350 ft 254 kts 180°
2026-04-30 09:18 55.54437 -4.76588 8357 ft 256 kts 180°
2026-04-30 09:18 55.52653 -4.76730 9349 ft 258 kts 179°
2026-04-30 09:18 55.50850 -4.76875 10275 ft 264 kts 179°
2026-04-30 09:19 55.48930 -4.77022 10643 ft 287 kts 179°
2026-04-30 09:19 55.46885 -4.77172 11247 ft 298 kts 180°
2026-04-30 09:19 55.44790 -4.77335 12049 ft 303 kts 180°
2026-04-30 09:19 55.42663 -4.77505 12870 ft 309 kts 180°
2026-04-30 09:20 55.40524 -4.77675 13650 ft 314 kts 180°
2026-04-30 09:20 55.38320 -4.77848 14415 ft 319 kts 180°
2026-04-30 09:20 55.36091 -4.78016 15132 ft 322 kts 180°
2026-04-30 09:20 55.33828 -4.78187 15860 ft 325 kts 180°
2026-04-30 09:21 55.31570 -4.78688 16563 ft 331 kts 191°
2026-04-30 09:21 55.29386 -4.80057 17266 ft 337 kts 203°
2026-04-30 09:21 55.27309 -4.81885 17962 ft 339 kts 204°
2026-04-30 09:21 55.25193 -4.83765 18660 ft 342 kts 204°
2026-04-30 09:22 55.23054 -4.85661 19265 ft 345 kts 204°
2026-04-30 09:22 55.20904 -4.87552 19868 ft 347 kts 204°
2026-04-30 09:22 55.18738 -4.89448 20456 ft 350 kts 204°
2026-04-30 09:22 55.16548 -4.91367 21039 ft 354 kts 203°
2026-04-30 09:23 55.14338 -4.93299 21628 ft 356 kts 203°
2026-04-30 09:23 55.12109 -4.95243 22148 ft 360 kts 203°
2026-04-30 09:23 55.09864 -4.97207 22270 ft 357 kts 203°
2026-04-30 09:23 55.07729 -4.99082 22289 ft 340 kts 203°
2026-04-30 09:24 55.05631 -5.00924 22285 ft 333 kts 202°
2026-04-30 09:24 55.03562 -5.02730 22290 ft 332 kts 202°
2026-04-30 09:24 55.01496 -5.04525 22288 ft 331 kts 202°
2026-04-30 09:24 54.99432 -5.06309 22293 ft 331 kts 202°
2026-04-30 09:25 54.97371 -5.08085 22291 ft 331 kts 202°
2026-04-30 09:25 54.95307 -5.09866 22287 ft 331 kts 202°
2026-04-30 09:25 54.93247 -5.11644 22285 ft 331 kts 202°
2026-04-30 09:25 54.91182 -5.13425 22290 ft 331 kts 202°
2026-04-30 09:26 54.89140 -5.15166 22290 ft 330 kts 199°
2026-04-30 09:26 54.86981 -5.16397 22289 ft 325 kts 189°
2026-04-30 09:26 54.84770 -5.17205 22294 ft 325 kts 189°
2026-04-30 09:26 54.82558 -5.18018 22290 ft 325 kts 189°
2026-04-30 09:27 54.80342 -5.18835 22286 ft 325 kts 189°
2026-04-30 09:27 54.78124 -5.19652 22286 ft 325 kts 189°
2026-04-30 09:27 54.75909 -5.20470 22291 ft 325 kts 189°
2026-04-30 09:27 54.73691 -5.21287 22285 ft 325 kts 189°
2026-04-30 09:28 54.71473 -5.22101 22289 ft 325 kts 189°
2026-04-30 09:28 54.69253 -5.22912 22294 ft 325 kts 189°
2026-04-30 09:28 54.67060 -5.23714 22287 ft 325 kts 189°
2026-04-30 09:28 54.64842 -5.24523 22292 ft 325 kts 189°
2026-04-30 09:29 54.62626 -5.25330 22290 ft 325 kts 188°
2026-04-30 09:29 54.60412 -5.26136 22292 ft 325 kts 188°
2026-04-30 09:29 54.58197 -5.26945 22291 ft 325 kts 188°
2026-04-30 09:29 54.55982 -5.27755 22297 ft 325 kts 188°
2026-04-30 09:30 54.53770 -5.28564 22296 ft 325 kts 188°
2026-04-30 09:30 54.51560 -5.29368 22285 ft 325 kts 188°
2026-04-30 09:30 54.49355 -5.30240 22287 ft 326 kts 193°
2026-04-30 09:30 54.47273 -5.31738 22283 ft 330 kts 201°
2026-04-30 09:31 54.45214 -5.33492 22290 ft 330 kts 201°
2026-04-30 09:31 54.43154 -5.35247 22282 ft 330 kts 201°
2026-04-30 09:31 54.41092 -5.36999 22291 ft 330 kts 201°
2026-04-30 09:31 54.39026 -5.38747 22291 ft 330 kts 201°
2026-04-30 09:32 54.36960 -5.40488 22297 ft 330 kts 201°
2026-04-30 09:32 54.34897 -5.42222 22292 ft 330 kts 201°
2026-04-30 09:32 54.32835 -5.43952 22292 ft 330 kts 201°
2026-04-30 09:32 54.30773 -5.45682 22284 ft 330 kts 201°
2026-04-30 09:33 54.28716 -5.47414 22281 ft 329 kts 201°
2026-04-30 09:33 54.26659 -5.49144 22273 ft 329 kts 201°
2026-04-30 09:33 54.24604 -5.50870 22277 ft 329 kts 201°
2026-04-30 09:33 54.22545 -5.52593 22275 ft 329 kts 201°
2026-04-30 09:34 54.20521 -5.54282 22267 ft 329 kts 201°
2026-04-30 09:34 54.18462 -5.55999 22266 ft 329 kts 201°
2026-04-30 09:34 54.16411 -5.57711 22264 ft 329 kts 201°
2026-04-30 09:34 54.14346 -5.59430 22262 ft 329 kts 201°
2026-04-30 09:35 54.12289 -5.61141 22262 ft 329 kts 201°
2026-04-30 09:35 54.10231 -5.62851 22277 ft 329 kts 200°
2026-04-30 09:35 54.08169 -5.64563 22272 ft 329 kts 200°
2026-04-30 09:35 54.06106 -5.66270 22271 ft 329 kts 200°
2026-04-30 09:36 54.04043 -5.67972 22239 ft 327 kts 200°
2026-04-30 09:36 54.02047 -5.69621 21995 ft 319 kts 200°
2026-04-30 09:36 54.00061 -5.71267 21611 ft 315 kts 200°
2026-04-30 09:36 53.98101 -5.72888 21196 ft 312 kts 199°
2026-04-30 09:37 53.96076 -5.74045 20773 ft 304 kts 187°
2026-04-30 09:37 53.93994 -5.74417 20357 ft 299 kts 179°
2026-04-30 09:37 53.91924 -5.74550 19945 ft 298 kts 179°
2026-04-30 09:37 53.89855 -5.74692 19528 ft 297 kts 179°
2026-04-30 09:38 53.87801 -5.74834 19124 ft 296 kts 179°
2026-04-30 09:38 53.85746 -5.74977 18730 ft 295 kts 179°
2026-04-30 09:38 53.83717 -5.75121 18305 ft 294 kts 179°
2026-04-30 09:38 53.81675 -5.75267 17885 ft 292 kts 178°
2026-04-30 09:39 53.79645 -5.75412 17483 ft 290 kts 178°
2026-04-30 09:39 53.77641 -5.75555 17100 ft 287 kts 178°
2026-04-30 09:39 53.75649 -5.75698 16720 ft 285 kts 178°
2026-04-30 09:39 53.73670 -5.75840 16346 ft 284 kts 178°
2026-04-30 09:40 53.71703 -5.75980 15977 ft 282 kts 178°
2026-04-30 09:40 53.69748 -5.76114 15603 ft 280 kts 178°
2026-04-30 09:40 53.67800 -5.76302 15221 ft 282 kts 184°
2026-04-30 09:40 53.65927 -5.77431 14838 ft 294 kts 205°
2026-04-30 09:41 53.64427 -5.79816 14439 ft 311 kts 229°
2026-04-30 09:41 53.63582 -5.83275 13990 ft 329 kts 249°
2026-04-30 09:41 53.63073 -5.87057 13498 ft 331 kts 250°
2026-04-30 09:41 53.62580 -5.90850 13034 ft 331 kts 251°
2026-04-30 09:42 53.62089 -5.94645 12573 ft 331 kts 251°
2026-04-30 09:42 53.61594 -5.98434 12096 ft 332 kts 251°
2026-04-30 09:42 53.61091 -6.02230 11624 ft 332 kts 251°
2026-04-30 09:42 53.60589 -6.05976 11148 ft 332 kts 251°
2026-04-30 09:43 53.60077 -6.09762 10714 ft 330 kts 252°
2026-04-30 09:43 53.59565 -6.13528 10330 ft 327 kts 252°
2026-04-30 09:43 53.59055 -6.17277 9973 ft 323 kts 252°
2026-04-30 09:43 53.58564 -6.20899 9808 ft 312 kts 252°
2026-04-30 09:44 53.58083 -6.24435 9500 ft 307 kts 251°
2026-04-30 09:44 53.57608 -6.27909 9135 ft 304 kts 251°
2026-04-30 09:44 53.57148 -6.31271 8988 ft 293 kts 252°
2026-04-30 09:44 53.57038 -6.34656 8859 ft 290 kts 275°
2026-04-30 09:45 53.57761 -6.37781 8694 ft 287 kts 303°
2026-04-30 09:45 53.59186 -6.40068 8381 ft 284 kts 330°
2026-04-30 09:45 53.60912 -6.41648 8120 ft 277 kts 333°
2026-04-30 09:45 53.62599 -6.43174 8193 ft 277 kts 333°
2026-04-30 09:46 53.64241 -6.44900 8195 ft 279 kts 320°
2026-04-30 09:46 53.65569 -6.47268 8199 ft 278 kts 303°
2026-04-30 09:46 53.66564 -6.50054 8197 ft 277 kts 297°
2026-04-30 09:46 53.67537 -6.52871 8209 ft 278 kts 298°
2026-04-30 09:47 53.68511 -6.55678 8202 ft 277 kts 298°
2026-04-30 09:47 53.69379 -6.58569 8200 ft 274 kts 285°
2026-04-30 09:47 53.69788 -6.61680 8203 ft 269 kts 269°
2026-04-30 09:47 53.69794 -6.64819 8202 ft 267 kts 263°
2026-04-30 09:48 53.69762 -6.67947 8193 ft 267 kts 263°
2026-04-30 09:48 53.69735 -6.71079 8193 ft 267 kts 264°
2026-04-30 09:48 53.69661 -6.74194 8191 ft 264 kts 256°
2026-04-30 09:48 53.69184 -6.77126 8191 ft 256 kts 239°
2026-04-30 09:49 53.68328 -6.79666 8198 ft 251 kts 230°
2026-04-30 09:49 53.67395 -6.82160 8194 ft 251 kts 230°
2026-04-30 09:49 53.66468 -6.84655 8193 ft 251 kts 231°
2026-04-30 09:49 53.65542 -6.87160 8185 ft 251 kts 231°
2026-04-30 09:50 53.64496 -6.89461 8177 ft 243 kts 216°
2026-04-30 09:50 53.63185 -6.91102 8176 ft 235 kts 201°
2026-04-30 09:50 53.61724 -6.92350 8173 ft 235 kts 200°
2026-04-30 09:50 53.60266 -6.93593 8175 ft 234 kts 199°
2026-04-30 09:51 53.58744 -6.94315 8171 ft 223 kts 176°
2026-04-30 09:51 53.57257 -6.93807 8174 ft 217 kts 152°
2026-04-30 09:51 53.56081 -6.92276 7969 ft 219 kts 129°
2026-04-30 09:51 53.55438 -6.89965 7659 ft 222 kts 104°
2026-04-30 09:52 53.55286 -6.87367 7367 ft 223 kts 99°
2026-04-30 09:52 53.55201 -6.85637 7173 ft 223 kts 99°
2026-04-30 09:52 53.55065 -6.83032 6903 ft 222 kts 99°
2026-04-30 09:52 53.54926 -6.80471 6613 ft 222 kts 99°
2026-04-30 09:53 53.54786 -6.77886 6314 ft 220 kts 99°
2026-04-30 09:53 53.54648 -6.75326 6025 ft 219 kts 100°
2026-04-30 09:53 53.54515 -6.72810 5717 ft 218 kts 99°
2026-04-30 09:53 53.54344 -6.70273 5370 ft 218 kts 109°
2026-04-30 09:54 53.53587 -6.68173 5036 ft 210 kts 141°
2026-04-30 09:54 53.52275 -6.67209 4743 ft 209 kts 172°
2026-04-30 09:54 53.50848 -6.67422 4649 ft 201 kts 182°
2026-04-30 09:54 53.49471 -6.67666 4559 ft 197 kts 180°
2026-04-30 09:55 53.48098 -6.67866 4465 ft 198 kts 180°
2026-04-30 09:55 53.46761 -6.67697 4366 ft 190 kts 153°
2026-04-30 09:55 53.45852 -6.66161 4226 ft 192 kts 113°
2026-04-30 09:55 53.45637 -6.63927 4026 ft 196 kts 100°
2026-04-30 09:56 53.45517 -6.61648 3837 ft 195 kts 101°
2026-04-30 09:56 53.45402 -6.59389 3658 ft 194 kts 101°
2026-04-30 09:56 53.45279 -6.57161 3487 ft 188 kts 102°
2026-04-30 09:56 53.45160 -6.55032 3379 ft 181 kts 101°
2026-04-30 09:57 53.45048 -6.52970 3177 ft 178 kts 101°
2026-04-30 09:57 53.44939 -6.50911 2955 ft 176 kts 101°
2026-04-30 09:57 53.44833 -6.48905 2741 ft 169 kts 101°
2026-04-30 09:57 53.44735 -6.47019 2505 ft 153 kts 102°
2026-04-30 09:58 53.44647 -6.45336 2308 ft 137 kts 101°
2026-04-30 09:58 53.44566 -6.43822 2131 ft 129 kts 101°
2026-04-30 09:58 53.44488 -6.42357 1953 ft 124 kts 100°
2026-04-30 09:58 53.44411 -6.40916 1779 ft 124 kts 99°
2026-04-30 09:59 53.44261 -6.38035 1448 ft 124 kts 97°
2026-04-30 09:59 53.44115 -6.35152 1120 ft 124 kts 97°
2026-04-30 10:00 53.43929 -6.32275 775 ft 122 kts 94°
2026-04-30 10:00 53.43860 -6.30845 629 ft 125 kts 92°
2026-04-30 10:01 53.43712 -6.27964 265 ft 123 kts 94°
2026-04-30 10:01 53.43638 -6.26635 211 ft 95 kts 95°
2026-04-30 10:01 53.43595 -6.25859 211 ft 41 kts 95°
2026-04-30 10:02 53.43537 -6.25253 213 ft 17 kts 118°
2026-04-30 10:02 53.43481 -6.25091 212 ft 16 kts 120°
2026-04-30 10:02 53.43404 -6.24997 211 ft 16 kts 202°
2026-04-30 10:02 53.43385 -6.25157 211 ft 14 kts 274°
2026-04-30 10:03 53.43393 -6.25320 211 ft 14 kts 276°
2026-04-30 10:03 53.43403 -6.25472 214 ft 13 kts 275°
2026-04-30 10:03 53.43405 -6.25613 211 ft 11 kts 249°
2026-04-30 10:03 53.43340 -6.25639 216 ft 10 kts 162°
2026-04-30 10:04 53.43272 -6.25590 211 ft 12 kts 155°
2026-04-30 10:04 53.43190 -6.25527 213 ft 14 kts 155°
2026-04-30 10:04 53.43094 -6.25457 219 ft 16 kts 159°
2026-04-30 10:04 53.42981 -6.25379 214 ft 19 kts 156°
2026-04-30 10:05 53.42863 -6.25293 214 ft 17 kts 158°
2026-04-30 10:05 53.42752 -6.25213 216 ft 15 kts 155°
2026-04-30 10:05 53.42676 -6.25090 211 ft 16 kts 153°
2026-04-30 10:05 53.42564 -6.25009 215 ft 19 kts 156°
2026-04-30 10:06 53.42437 -6.24918 213 ft 21 kts 158°
2026-04-30 10:06 53.42302 -6.24824 214 ft 20 kts 153°
2026-04-30 10:06 53.42190 -6.24718 216 ft 16 kts 126°
2026-04-30 10:06 53.42170 -6.24534 211 ft 17 kts 96°
2026-04-30 10:07 53.42171 -6.24411 216 ft 7 kts 43°
2026-04-30 10:07 53.42221 -6.24407 211 ft 8 kts 341°
2026-04-30 10:07 53.42251 -6.24433 214 ft 1 kts 332°